Tracking 25949 objects as of 8-Aug-2022
HD Live streaming from Space Station
objects crossing your sky now

SOLRAD 11A

Track SOLRAD 11A now!
SOLRAD 11A is classified as:


NORAD ID: 8748
Int'l Code: 1976-023C
Perigee: 117,014.1 km
Apogee: 119,946.5 km
Inclination: 22.8 °
Period: 7,317.3 minutes
Semi major axis: 124851 km
RCS: Unknown
Launch date: March 15, 1976
Source: United States (US)
Launch site: AIR FORCE EASTERN TEST RANGE (AFETR)
aabbcc
Your satellite tracking list
Your tracking list is empty




NASA's NSSDC Master Catalog

Two Line Element Set (TLE):
1 08748U 76023C   22205.83701805 -.00000958  00000-0  00000-0 0  9991
2 08748  22.8445 333.3406 0117437 130.4490   6.1739  0.19679471  2675
Source of the keplerian elements: AFSPC